Volver al catálogo

COSMOS 1244

ActivoMilitarPO
NORAD 12297·PAYLOAD·🇷🇺 Russia

Lanzado Feb 12, 1981 desde Plesetsk Cosmodrome

Loading…

Próximos Pases (próximas 24 horas)

TLE

ActualizadoSource: Space-Track

Época: Sep 14, 2026, 19:28 UTC

1 12297U 81013A   26257.81116147  .00000046  00000-0  32247-4 0  9997
2 12297  82.9554  19.3140 0029169 302.2305 220.6496 13.75252425931587

Sigue COSMOS 1244 en tiempo real con AllMySat

Download on the App Store